This is the latest recevied weather packets stored in our database for station/object IT9CNT. If no packets are shown the sender has not sent any weather packets the latest 1 day(s).
| Time | Temp. | Humidity | Pressure | Rain* | Wind** | Luminosity | Snow |
|---|---|---|---|---|---|---|---|
| 1777992183 | 18.33° C | 79% | 1013.1 hPa | 0 mm | 3.58 m/s, 144° | - | - |
| 1777992123 | 18.89° C | 76% | 1012.9 hPa | 0 mm | 3.13 m/s, 152° | - | - |
| 1777992063 | 18.89° C | 80% | 1013.1 hPa | 0 mm | 3.13 m/s, 154° | - | - |
| 1777992003 | 19.44° C | 80% | 1013.1 hPa | 0 mm | 3.13 m/s, 154° | - | - |
| 1777991943 | 19.44° C | 81% | 1013.1 hPa | 0 mm | 3.13 m/s, 161° | - | - |
| 1777991883 | 18.89° C | 81% | 1013.1 hPa | 0 mm | 3.13 m/s, 165° | - | - |
| 1777991823 | 18.33° C | 81% | 1012.9 hPa | 0 mm | 3.13 m/s, 163° | - | - |
| 1777991763 | 18.33° C | 81% | 1013.1 hPa | 0 mm | 3.13 m/s, 163° | - | - |
| 1777991703 | 18.89° C | 80% | 1013.1 hPa | 0 mm | 3.13 m/s, 162° | - | - |
| 1777991643 | 18.89° C | 79% | 1013 hPa | 0 mm | 2.68 m/s, 159° | - | - |
| 1777991583 | 19.44° C | 80% | 1013.3 hPa | 0 mm | 2.68 m/s, 160° | - | - |
| 1777991523 | 19.44° C | 81% | 1013.1 hPa | 0 mm | 2.68 m/s, 158° | - | - |
| 1777991463 | 18.89° C | 81% | 1013 hPa | 0 mm | 3.13 m/s, 163° | - | - |
| 1777991404 | 18.89° C | 81% | 1013.1 hPa | 0 mm | 3.13 m/s, 164° | - | - |
| 1777991344 | 18.89° C | 79% | 1013.2 hPa | 0 mm | 2.68 m/s, 164° | - | - |
| 1777991283 | 18.89° C | 79% | 1013.1 hPa | 0 mm | 2.68 m/s, 162° | - | - |
| 1777991223 | 18.89° C | 77% | 1013.1 hPa | 0 mm | 2.68 m/s, 161° | - | - |
| 1777991164 | 18.33° C | 77% | 1013.2 hPa | 0 mm | 2.68 m/s, 158° | - | - |
| 1777991103 | 18.89° C | 79% | 1013.2 hPa | 0 mm | 2.68 m/s, 156° | - | - |
| 1777991043 | 18.89° C | 79% | 1013.2 hPa | 0 mm | 3.13 m/s, 158° | - | - |
| 1777990983 | 18.89° C | 79% | 1013.2 hPa | 0 mm | 3.13 m/s, 160° | - | - |
| 1777990923 | 18.89° C | 80% | 1013.1 hPa | 0 mm | 3.13 m/s, 163° | - | - |
| 1777990863 | 18.89° C | 81% | 1013.3 hPa | 0 mm | 3.13 m/s, 164° | - | - |
| 1777990803 | 18.89° C | 81% | 1013.2 hPa | 0 mm | 3.13 m/s, 166° | - | - |
| 1777990743 | 18.33° C | 81% | 1013.4 hPa | 0 mm | 3.58 m/s, 164° | - | - |
* Rain latest hour (hover to see other rain measurements)
** Current wind speed in m/s (hover to see current wind gust speed)